This is the latest recevied weather packets stored in our database for station/object K9RCP-20. If no packets are shown the sender has not sent any weather packets the latest 10 day(s).
| Time | Temp. | Humidity | Pressure | Rain* | Wind** | Luminosity | Snow |
|---|---|---|---|---|---|---|---|
| 1778164838 | 11.67° C | 72% | 1018.3 hPa | 0 mm | - | 94 W/m² | - |
| 1778164535 | 11.67° C | 72% | 1018.4 hPa | 0 mm | - | 90 W/m² | - |
| 1778164233 | 11.67° C | 72% | 1018.4 hPa | 0 mm | - | 80 W/m² | - |
| 1778163937 | 11.67° C | 72% | 1018.3 hPa | 0 mm | - | 71 W/m² | - |
| 1778163625 | 11.67° C | 73% | 1018.2 hPa | 0 mm | - | 59 W/m² | - |
| 1778163320 | 11.67° C | 73% | 1018.3 hPa | 0 mm | - | 58 W/m² | - |
| 1778163012 | 11.67° C | 74% | 1018.1 hPa | 0 mm | - | 51 W/m² | - |
| 1778162708 | 11.67° C | 74% | 1018.1 hPa | 0 mm | - | 43 W/m² | - |
| 1778162406 | 11.11° C | 74% | 1018 hPa | 0 mm | - | 38 W/m² | - |
| 1778162102 | 11.11° C | 74% | 1018.1 hPa | 0 mm | - | 34 W/m² | - |
| 1778161800 | 11.11° C | 74% | 1018 hPa | 0 mm | - | 29 W/m² | - |
| 1778161496 | 11.11° C | 74% | 1017.7 hPa | 0 mm | - | 24 W/m² | - |
| 1778161192 | 11.11° C | 75% | 1017.9 hPa | 0 mm | - | 21 W/m² | - |
| 1778160888 | 11.11° C | 75% | 1017.7 hPa | 0 mm | - | 19 W/m² | - |
| 1778160587 | 11.11° C | 75% | 1017.8 hPa | 0 mm | - | 15 W/m² | - |
| 1778160283 | 11.11° C | 74% | 1017.9 hPa | 0 mm | - | 13 W/m² | - |
| 1778159979 | 11.11° C | 75% | 1017.8 hPa | 0 mm | - | 9 W/m² | - |
| 1778159676 | 11.11° C | 75% | 1017.9 hPa | 0 mm | - | 8 W/m² | - |
| 1778159373 | 11.11° C | 75% | 1017.9 hPa | 0 mm | - | 5 W/m² | - |
| 1778159070 | 11.11° C | 75% | 1017.8 hPa | 0 mm | - | 4 W/m² | - |
| 1778158769 | 11.11° C | 75% | 1017.8 hPa | 0 mm | - | 3 W/m² | - |
| 1778158466 | 11.11° C | 74% | 1017.8 hPa | 0 mm | - | 2 W/m² | - |
| 1778158164 | 11.11° C | 75% | 1017.8 hPa | 0 mm | - | 1 W/m² | - |
| 1778157859 | 11.67° C | 74% | 1018 hPa | 0 mm | - | 0 W/m² | - |
| 1778157558 | 11.67° C | 74% | 1017.8 hPa | 0 mm | - | 0 W/m² | - |
* Rain latest hour (hover to see other rain measurements)
** Current wind speed in m/s (hover to see current wind gust speed)